Home > Weather > Derby > Past weeks

Flag for United Kingdom Weather for the Past 2 Weeks in Derby, England, United Kingdom

Now
61 °F

Sunny.


Feels Like: 61 °F
Forecast: 43 / 65 °F
Wind: 9 mph from South

Location: East Midlands

Current Time: May 4, 2016 at 9:10:04 PM

Latest Report: May 4, 2016 at 7:50 PM


Visibility: 10 mi

Pressure: 30.18 "Hg

Humidity: 45%

Dew Point: 39 °F

Location of DerbyLocation

Historic Weather in Derby — Graph

°F

Derby Temperature Yesterday

Maximum temperature yesterday: 55 °F (at 4:20 PM)
Minimum temperature yesterday: 41 °F (at 2:20 AM)
Average temperature yesterday: 48 °F

High & Low Weather Summary for the Past Weeks

 TemperatureHumidityPressure
High63 °F (May 4, 2:50 PM)100% (Apr 21, 4:20 AM)30.48 "Hg (Apr 21, 4:20 AM)
Low30 °F (Apr 27, 3:50 AM)36% (Apr 20, 1:50 PM)29.65 "Hg (Apr 29, 6:20 AM)
Average45 °F74%30.09 "Hg
* Reported Apr 19 7:20 PM — May 4 7:20 PM, Derby, Weather by CustomWeather, © 2016

Note: Actual official high and low records may vary slightly from our data, if they occured in-between our weather recording intervals... More about our weather records

Advertising

Derby Weather History for the Previous 24 Hours

Scroll right to see more
 ConditionsComfort  
Time TempWeatherWind HumidityBarometerVisibility
7:20 PM
Wed, May 4
61 °FSunny.13 mph45%30.18 "Hg10 mi
6:50 PM61 °FSunny.14 mph45%30.18 "Hg10 mi
5:50 PM63 °FSunny.16 mph39%30.18 "Hg10 mi
5:20 PM63 °FPassing clouds.15 mph39%30.18 "HgN/A
4:50 PM63 °FSunny.16 mph39%30.18 "Hg10 mi
4:20 PM63 °FSunny.14 mph39%30.21 "Hg10 mi
3:20 PM63 °FSunny.15 mph37%30.24 "Hg10 mi
2:50 PM63 °FPassing clouds.15 mph39%30.24 "HgN/A
2:20 PM61 °FPassing clouds.15 mph42%30.24 "HgN/A
1:50 PM61 °FSunny.18 mph42%30.24 "Hg10 mi
1:20 PM59 °FPassing clouds.16 mph51%30.27 "HgN/A
12:20 PM57 °FPassing clouds.16 mph48%30.27 "HgN/A
11:50 AM57 °FPassing clouds.16 mph48%30.27 "HgN/A
10:50 AM55 °FPassing clouds.17 mph55%30.27 "HgN/A
10:20 AM54 °FPassing clouds.15 mph58%30.30 "HgN/A
9:50 AM54 °FSunny.14 mph58%30.30 "Hg10 mi
8:50 AM50 °FSunny.9 mph71%30.30 "Hg10 mi
8:20 AM48 °FSunny.6 mph76%30.30 "Hg10 mi
7:20 AM45 °FPassing clouds.7 mph76%30.30 "HgN/A
6:50 AM39 °FSunny.5 mph87%30.30 "Hg10 mi
6:20 AM39 °FPassing clouds.6 mph81%30.30 "HgN/A
5:20 AM41 °FClear.5 mph81%30.30 "Hg10 mi
4:50 AM41 °FClear.5 mph81%30.30 "Hg10 mi
4:20 AM43 °FClear.3 mph76%30.30 "Hg10 mi
3:50 AM41 °FClear.3 mph81%30.33 "Hg10 mi
3:20 AM43 °FClear.5 mph76%30.33 "Hg10 mi
2:50 AM43 °FClear.6 mph76%30.33 "Hg10 mi
2:20 AM45 °FClear.7 mph71%30.33 "Hg10 mi
1:50 AM43 °FClear.5 mph76%30.33 "Hg10 mi
1:20 AM43 °FClear.7 mph76%30.33 "Hg10 mi
12:50 AM45 °FClear.6 mph76%30.33 "Hg10 mi
11:50 PM
Tue, May 3
45 °FClear.6 mph71%30.33 "Hg10 mi
11:20 PM46 °FClear.3 mph71%30.33 "Hg10 mi
10:50 PM46 °FClear.5 mph71%30.33 "Hg10 mi
10:20 PM50 °FClear.3 mph58%30.33 "Hg10 mi
9:50 PM50 °FClear.2 mph62%30.33 "Hg10 mi
9:20 PM50 °FSunny.3 mph62%30.30 "Hg10 mi
Weather by CustomWeather, © 2016

See weather overviewHow to use our weather pages